Imperial, CA

2:08 AM PST on February 11, 2016 (GMT -0800)
Imperial County

Weather History for KIPL - February, 2013

Change the Weather History Date:

Friday, February 8, 2013

  Actual Average (KCZZ) Record (KCZZ)
Temperature  
Mean Temperature 54 °F 49 °F  
Max Temperature 63 °F 63 °F 84 °F (1996)
Min Temperature 45 °F 35 °F 24 °F (2002)
Degree Days  
Heating Degree Days 10 16  
Month to date heating degree days 128  
Since 1 July heating degree days 1744  
Cooling Degree Days 0 0  
Month to date cooling degree days 0  
Year to date cooling degree days 0  
Growing Degree Days 4 (Base 50)    
Moisture  
Dew Point 35 °F    
Average Humidity 46    
Maximum Humidity 65    
Minimum Humidity 30    
Precipitation  
Precipitation 0.00 in 0.11 in 2.07 in (1993)
Month to date precipitation 0.83  
Year to date precipitation 3.81  
Sea Level Pressure  
Sea Level Pressure 29.88 in    
Wind  
Wind Speed 23 mph (WSW)    
Max Wind Speed 37 mph    
Max Gust Speed 48 mph    
Visibility 9 miles    
Events      
T = Trace of Precipitation, MM = Missing Value Source: NWS Daily Summary

Daily Weather History Graph

Daily Weather History Graph

Search for Another Location

Airport or City:

Trip Planner

Search our weather history database for the weather conditions in past years. The results will help you decide how hot, cold, wet, or windy it might be!

Date:

Astronomy

Feb. 08, 2013 Rise Set
Actual Time 6:31 AM PST 5:21 PM PST
Civil Twilight 6:06 AM PST 5:47 PM PST
Nautical Twilight 5:36 AM PST 6:16 PM PST
Astronomical Twilight 5:08 AM PST 6:45 PM PST
Moon 5:01 AM PST (2/8) 4:01 PM PST (2/8)
Length of Visible Light 11h 41m
Length of Day
10h 50m
Waning Crescent, 3% of the Moon is Illuminated
Feb 8
Waning Crescent
Feb 9
New
Feb 17
First Quarter
Feb 25
Full
Mar 4
Last Quarter

Hourly Weather History & Observations

Time (PST) Temp. Windchill Dew Point Humidity Pressure Visibility Wind Dir Wind Speed Gust Speed Precip Events Conditions
12:14 AM 57.2 °F - 37.4 °F 48% 29.86 in 6.0 mi West 21.9 mph 35.7 mph N/A   Haze
12:53 AM 57.0 °F - 37.9 °F 49% 29.86 in 6.0 mi West 21.9 mph 32.2 mph N/A   Haze
1:09 AM 57.2 °F - 37.4 °F 48% 29.87 in 5.0 mi West 21.9 mph 29.9 mph N/A   Haze
1:53 AM 57.0 °F - 35.1 °F 44% 29.84 in 2.5 mi West 34.5 mph 47.2 mph N/A   Haze
2:17 AM 57.2 °F - 35.6 °F 44% 29.85 in 6.0 mi West 32.2 mph 48.3 mph N/A   Haze
2:27 AM 55.4 °F - 35.6 °F 47% 29.85 in 10.0 mi West 25.3 mph 38.0 mph N/A   Scattered Clouds
2:53 AM 55.9 °F - 37.0 °F 49% 29.86 in 10.0 mi WSW 27.6 mph 38.0 mph N/A   Partly Cloudy
3:53 AM 55.4 °F - 35.6 °F 47% 29.85 in 10.0 mi West 24.2 mph 36.8 mph N/A   Clear
4:53 AM 57.9 °F - 32.0 °F 37% 29.85 in 10.0 mi West 35.7 mph 46.0 mph N/A   Clear
5:53 AM 55.9 °F - 34.0 °F 44% 29.86 in 10.0 mi WSW 36.8 mph 43.7 mph N/A   Clear
6:53 AM 54.0 °F - 36.0 °F 51% 29.89 in 10.0 mi WSW 29.9 mph 38.0 mph N/A   Clear
7:53 AM 55.9 °F - 34.0 °F 44% 29.93 in 10.0 mi WSW 25.3 mph 31.1 mph N/A   Clear
8:53 AM 57.9 °F - 30.0 °F 35% 29.94 in 10.0 mi WSW 23.0 mph 29.9 mph N/A   Clear
9:53 AM 60.1 °F - 34.0 °F 38% 29.94 in 10.0 mi WNW 20.7 mph 33.4 mph N/A   Clear
10:53 AM 62.1 °F - 30.9 °F 31% 29.94 in 10.0 mi SW 16.1 mph 25.3 mph N/A   Clear
11:53 AM 63.0 °F - 30.9 °F 30% 29.91 in 10.0 mi WSW 20.7 mph 28.8 mph N/A   Clear
12:53 PM 63.0 °F - 35.1 °F 35% 29.88 in 10.0 mi West 19.6 mph 31.1 mph N/A   Clear
1:53 PM 63.0 °F - 35.1 °F 35% 29.86 in 10.0 mi West 24.2 mph 32.2 mph N/A   Mostly Cloudy
2:53 PM 60.1 °F - 36.0 °F 41% 29.87 in 10.0 mi West 21.9 mph 34.5 mph N/A   Scattered Clouds
3:53 PM 57.0 °F - 37.0 °F 47% 29.87 in 10.0 mi West 23.0 mph 34.5 mph N/A   Overcast
4:53 PM 55.0 °F - 35.1 °F 47% 29.88 in 10.0 mi WSW 18.4 mph 24.2 mph N/A   Overcast
5:53 PM 54.0 °F - 35.1 °F 49% 29.87 in 10.0 mi WSW 13.8 mph - N/A   Overcast
6:53 PM 52.0 °F - 35.1 °F 53% 29.87 in 10.0 mi WSW 15.0 mph - N/A   Mostly Cloudy
7:53 PM 51.1 °F - 36.0 °F 56% 29.88 in 10.0 mi WSW 9.2 mph - N/A   Mostly Cloudy
8:53 PM 50.0 °F - 35.1 °F 57% 29.89 in 10.0 mi West 9.2 mph - N/A   Mostly Cloudy
9:53 PM 48.0 °F - 36.0 °F 63% 29.89 in 10.0 mi West 9.2 mph - N/A   Clear
10:53 PM 46.9 °F - 34.0 °F 61% 29.88 in 10.0 mi SW 8.1 mph - N/A   Clear
11:53 PM 45.0 °F 43.5 °F 34.0 °F 65% 29.88 in 10.0 mi SW 3.5 mph - N/A   Clear